Year,Month,Day,Hour,Minute,Value (Times are PST for temperature in C)
2015,12,15,00,00,-1.80
2015,12,15,00,01,-1.80
2015,12,15,00,02,-1.80
2015,12,15,00,03,-1.80
2015,12,15,00,04,-1.80
2015,12,15,00,05,-1.80
2015,12,15,00,06,-1.80
2015,12,15,00,07,-1.80
2015,12,15,00,08,-1.80
2015,12,15,00,09,-1.80
2015,12,15,00,10,-1.70
2015,12,15,00,11,-1.80
2015,12,15,00,12,-1.70
2015,12,15,00,13,-1.70
2015,12,15,00,14,-1.80
2015,12,15,00,15,-1.80
2015,12,15,00,16,-1.80
2015,12,15,00,17,-1.80
2015,12,15,00,18,-1.80
2015,12,15,00,19,-1.80
2015,12,15,00,20,-1.80
2015,12,15,00,21,-1.80
2015,12,15,00,22,-1.90
2015,12,15,00,23,-1.90
2015,12,15,00,24,-1.90
2015,12,15,00,25,-1.90
2015,12,15,00,26,-1.90
2015,12,15,00,27,-1.90
2015,12,15,00,28,-1.90
2015,12,15,00,29,-1.90
2015,12,15,00,30,-1.90
2015,12,15,00,31,-1.80
2015,12,15,00,32,-1.80
2015,12,15,00,33,-1.80
2015,12,15,00,34,-1.80
2015,12,15,00,35,-1.80
2015,12,15,00,36,-1.70
2015,12,15,00,37,-1.70
2015,12,15,00,38,-1.70
2015,12,15,00,39,-1.70
2015,12,15,00,40,-1.60
2015,12,15,00,41,-1.60
2015,12,15,00,42,-1.70
2015,12,15,00,43,-1.70
2015,12,15,00,44,-1.70
2015,12,15,00,45,-1.70
2015,12,15,00,46,-1.80
2015,12,15,00,47,-1.80
2015,12,15,00,48,-1.80
2015,12,15,00,49,-1.80
2015,12,15,00,50,-1.80
2015,12,15,00,51,-1.80
2015,12,15,00,52,-1.80
2015,12,15,00,53,-1.80
2015,12,15,00,54,-1.80
2015,12,15,00,55,-1.80
2015,12,15,00,56,-1.80
2015,12,15,00,57,-1.80
2015,12,15,00,58,-1.80
2015,12,15,00,59,-1.80
2015,12,15,01,00,-1.70
2015,12,15,01,01,-1.70
2015,12,15,01,02,-1.70
2015,12,15,01,03,-1.70
2015,12,15,01,04,-1.70
2015,12,15,01,05,-1.70
2015,12,15,01,06,-1.70
2015,12,15,01,07,-1.70
2015,12,15,01,08,-1.70
2015,12,15,01,09,-1.70
2015,12,15,01,10,-1.70
2015,12,15,01,11,-1.70
2015,12,15,01,12,-1.70
2015,12,15,01,13,-1.70
2015,12,15,01,14,-1.70
2015,12,15,01,15,-1.70
2015,12,15,01,16,-1.60
2015,12,15,01,17,-1.60
2015,12,15,01,18,-1.60
2015,12,15,01,19,-1.60
2015,12,15,01,20,-1.60
2015,12,15,01,21,-1.60
2015,12,15,01,22,-1.60
2015,12,15,01,23,-1.60
2015,12,15,01,24,-1.60
2015,12,15,01,25,-1.60
2015,12,15,01,26,-1.60
2015,12,15,01,27,-1.60
2015,12,15,01,28,-1.60
2015,12,15,01,29,-1.60
2015,12,15,01,30,-1.60
2015,12,15,01,31,-1.60
2015,12,15,01,32,-1.60
2015,12,15,01,33,-1.60
2015,12,15,01,34,-1.60
2015,12,15,01,35,-1.50
2015,12,15,01,36,-1.50
2015,12,15,01,37,-1.50
2015,12,15,01,38,-1.50
2015,12,15,01,39,-1.50
2015,12,15,01,40,-1.50
2015,12,15,01,41,-1.50
2015,12,15,01,42,-1.50
2015,12,15,01,43,-1.60
2015,12,15,01,44,-1.60
2015,12,15,01,45,-1.60
2015,12,15,01,46,-1.60
2015,12,15,01,47,-1.60
2015,12,15,01,48,-1.60
2015,12,15,01,49,-1.60
2015,12,15,01,50,-1.60
2015,12,15,01,51,-1.60
2015,12,15,01,52,-1.60
2015,12,15,01,53,-1.60
2015,12,15,01,54,-1.60
2015,12,15,01,55,-1.60
2015,12,15,01,56,-1.50
2015,12,15,01,57,-1.50
2015,12,15,01,58,-1.50
2015,12,15,01,59,-1.50
2015,12,15,02,00,-1.50
2015,12,15,02,01,-1.50
2015,12,15,02,02,-1.50
2015,12,15,02,03,-1.50
2015,12,15,02,04,-1.50
2015,12,15,02,05,-1.50
2015,12,15,02,06,-1.40
2015,12,15,02,07,-1.40
2015,12,15,02,08,-1.50
2015,12,15,02,09,-1.40
2015,12,15,02,10,-1.40
2015,12,15,02,11,-1.40
2015,12,15,02,12,-1.40
2015,12,15,02,13,-1.40
2015,12,15,02,14,-1.40
2015,12,15,02,15,-1.40
2015,12,15,02,16,-1.40
2015,12,15,02,17,-1.40
2015,12,15,02,18,-1.40
2015,12,15,02,19,-1.40
2015,12,15,02,20,-1.40
2015,12,15,02,21,-1.30
2015,12,15,02,22,-1.30
2015,12,15,02,23,-1.30
2015,12,15,02,24,-1.30
2015,12,15,02,25,-1.30
2015,12,15,02,26,-1.30
2015,12,15,02,27,-1.30
2015,12,15,02,28,-1.30
2015,12,15,02,29,-1.30
2015,12,15,02,30,-1.30
2015,12,15,02,31,-1.30
2015,12,15,02,32,-1.20
2015,12,15,02,33,-1.20
2015,12,15,02,34,-1.20
2015,12,15,02,35,-1.20
2015,12,15,02,36,-1.20
2015,12,15,02,37,-1.20
2015,12,15,02,38,-1.20
2015,12,15,02,39,-1.20
2015,12,15,02,40,-1.20
2015,12,15,02,41,-1.20
2015,12,15,02,42,-1.20
2015,12,15,02,43,-1.20
2015,12,15,02,44,-1.20
2015,12,15,02,45,-1.20
2015,12,15,02,46,-1.20
2015,12,15,02,47,-1.10
2015,12,15,02,48,-1.20
2015,12,15,02,49,-1.20
2015,12,15,02,50,-1.10
2015,12,15,02,51,-1.10
2015,12,15,02,52,-1.10
2015,12,15,02,53,-1.10
2015,12,15,02,54,-1.10
2015,12,15,02,55,-1.10
2015,12,15,02,56,-1.10
2015,12,15,02,57,-1.10
2015,12,15,02,58,-1.10
2015,12,15,02,59,-1.00
2015,12,15,03,00,-1.00
2015,12,15,03,01,-1.00
2015,12,15,03,02,-1.00
2015,12,15,03,03,-1.00
2015,12,15,03,04,-1.00
2015,12,15,03,05,-0.90
2015,12,15,03,06,-0.90
2015,12,15,03,07,-0.90
2015,12,15,03,08,-0.90
2015,12,15,03,09,-0.90
2015,12,15,03,10,-0.90
2015,12,15,03,11,-0.90
2015,12,15,03,12,-1.00
2015,12,15,03,13,-1.00
2015,12,15,03,14,-1.00
2015,12,15,03,15,-1.00
2015,12,15,03,16,-1.00
2015,12,15,03,17,-1.00
2015,12,15,03,18,-1.00
2015,12,15,03,19,-1.00
2015,12,15,03,20,-1.00
2015,12,15,03,21,-1.00
2015,12,15,03,22,-1.00
2015,12,15,03,23,-1.00
2015,12,15,03,24,-1.00
2015,12,15,03,25,-1.00
2015,12,15,03,26,-1.00
2015,12,15,03,27,-1.00
2015,12,15,03,28,-0.90
2015,12,15,03,29,-0.90
2015,12,15,03,30,-0.90
2015,12,15,03,31,-0.90
2015,12,15,03,32,-0.90
2015,12,15,03,33,-0.90
2015,12,15,03,34,-0.90
2015,12,15,03,35,-0.90
2015,12,15,03,36,-0.90
2015,12,15,03,37,-0.90
2015,12,15,03,38,-0.90
2015,12,15,03,39,-0.90
2015,12,15,03,40,-0.90
2015,12,15,03,41,-0.90
2015,12,15,03,42,-0.80
2015,12,15,03,43,-0.80
2015,12,15,03,44,-0.80
2015,12,15,03,45,-0.80
2015,12,15,03,46,-0.80
2015,12,15,03,47,-0.80
2015,12,15,03,48,-0.80
2015,12,15,03,49,-0.80
2015,12,15,03,50,-0.80
2015,12,15,03,51,-0.80
2015,12,15,03,52,-0.80
2015,12,15,03,53,-0.80
2015,12,15,03,54,-0.80
2015,12,15,03,55,-0.80
2015,12,15,03,56,-0.80
2015,12,15,03,57,-0.80
2015,12,15,03,58,-0.80
2015,12,15,03,59,-0.70
2015,12,15,04,00,-0.70
2015,12,15,04,01,-0.70
2015,12,15,04,02,-0.70
2015,12,15,04,03,-0.70
2015,12,15,04,04,-0.70
2015,12,15,04,05,-0.70
2015,12,15,04,06,-0.70
2015,12,15,04,07,-0.70
2015,12,15,04,08,-0.70
2015,12,15,04,09,-0.70
2015,12,15,04,10,-0.70
2015,12,15,04,11,-0.70
2015,12,15,04,12,-0.70
2015,12,15,04,13,-0.70
2015,12,15,04,14,-0.70
2015,12,15,04,15,-0.70
2015,12,15,04,16,-0.70
2015,12,15,04,17,-0.70
2015,12,15,04,18,-0.70
2015,12,15,04,19,-0.70
2015,12,15,04,20,-0.70
2015,12,15,04,21,-0.80
2015,12,15,04,22,-0.80
2015,12,15,04,23,-0.80
2015,12,15,04,24,-0.80
2015,12,15,04,25,-0.80
2015,12,15,04,26,-0.70
2015,12,15,04,27,-0.80
2015,12,15,04,28,-0.80
2015,12,15,04,29,-0.80
2015,12,15,04,30,-0.80
2015,12,15,04,31,-0.70
2015,12,15,04,32,-0.70
2015,12,15,04,33,-0.70
2015,12,15,04,34,-0.70
2015,12,15,04,35,-0.70
2015,12,15,04,36,-0.70
2015,12,15,04,37,-0.70
2015,12,15,04,38,-0.70
2015,12,15,04,39,-0.70
2015,12,15,04,40,-0.70
2015,12,15,04,41,-0.70
2015,12,15,04,42,-0.70
2015,12,15,04,43,-0.70
2015,12,15,04,44,-0.70
2015,12,15,04,45,-0.70
2015,12,15,04,46,-0.70
2015,12,15,04,47,-0.80
2015,12,15,04,48,-0.80
2015,12,15,04,49,-0.80
2015,12,15,04,50,-0.80
2015,12,15,04,51,-0.80
2015,12,15,04,52,-0.80
2015,12,15,04,53,-0.80
2015,12,15,04,54,-0.80
2015,12,15,04,55,-0.80
2015,12,15,04,56,-0.80
2015,12,15,04,57,-0.80
2015,12,15,04,58,-0.80
2015,12,15,04,59,-0.80
2015,12,15,05,00,-0.80
2015,12,15,05,01,-0.80
2015,12,15,05,02,-0.80
2015,12,15,05,03,-0.80
2015,12,15,05,04,-0.80
2015,12,15,05,05,-0.70
2015,12,15,05,06,-0.70
2015,12,15,05,07,-0.70
2015,12,15,05,08,-0.70
2015,12,15,05,09,-0.70
2015,12,15,05,10,-0.70
2015,12,15,05,11,-0.70
2015,12,15,05,12,-0.70
2015,12,15,05,13,-0.70
2015,12,15,05,14,-0.70
2015,12,15,05,15,-0.70
2015,12,15,05,16,-0.70
2015,12,15,05,17,-0.70
2015,12,15,05,18,-0.70
2015,12,15,05,19,-0.70
2015,12,15,05,20,-0.70
2015,12,15,05,21,-0.70
2015,12,15,05,22,-0.70
2015,12,15,05,23,-0.70
2015,12,15,05,24,-0.70
2015,12,15,05,25,-0.70
2015,12,15,05,26,-0.70
2015,12,15,05,27,-0.70
2015,12,15,05,28,-0.70
2015,12,15,05,29,-0.60
2015,12,15,05,30,-0.60
2015,12,15,05,31,-0.60
2015,12,15,05,32,-0.60
2015,12,15,05,33,-0.60
2015,12,15,05,34,-0.50
2015,12,15,05,35,-0.50
2015,12,15,05,36,-0.50
2015,12,15,05,37,-0.50
2015,12,15,05,38,-0.60
2015,12,15,05,39,-0.60
2015,12,15,05,40,-0.60
2015,12,15,05,41,-0.60
2015,12,15,05,42,-0.60
2015,12,15,05,43,-0.60
2015,12,15,05,44,-0.60
2015,12,15,05,45,-0.60
2015,12,15,05,46,-0.60
2015,12,15,05,47,-0.60
2015,12,15,05,48,-0.60
2015,12,15,05,49,-0.50
2015,12,15,05,50,-0.50
2015,12,15,05,51,-0.50
2015,12,15,05,52,-0.50
2015,12,15,05,53,-0.50
2015,12,15,05,54,-0.50
2015,12,15,05,55,-0.50
2015,12,15,05,56,-0.50
2015,12,15,05,57,-0.50
2015,12,15,05,58,-0.50
2015,12,15,05,59,-0.50
2015,12,15,06,00,-0.50
2015,12,15,06,01,-0.50
2015,12,15,06,02,-0.50
2015,12,15,06,03,-0.50
2015,12,15,06,04,-0.50
2015,12,15,06,05,-0.50
2015,12,15,06,06,-0.50
2015,12,15,06,07,-0.50
2015,12,15,06,08,-0.60
2015,12,15,06,09,-0.60
2015,12,15,06,10,-0.60
2015,12,15,06,11,-0.60
2015,12,15,06,12,-0.60
2015,12,15,06,13,-0.70
2015,12,15,06,14,-0.70
2015,12,15,06,15,-0.70
2015,12,15,06,16,-0.70
2015,12,15,06,17,-0.70
2015,12,15,06,18,-0.70
2015,12,15,06,19,-0.70
2015,12,15,06,20,-0.70
2015,12,15,06,21,-0.70
2015,12,15,06,22,-0.70
2015,12,15,06,23,-0.70
2015,12,15,06,24,-0.70
2015,12,15,06,25,-0.70
2015,12,15,06,26,-0.60
2015,12,15,06,27,-0.60
2015,12,15,06,28,-0.60
2015,12,15,06,29,-0.60
2015,12,15,06,30,-0.60
2015,12,15,06,31,-0.60
2015,12,15,06,32,-0.60
2015,12,15,06,33,-0.60
2015,12,15,06,34,-0.60
2015,12,15,06,35,-0.60
2015,12,15,06,36,-0.60
2015,12,15,06,37,-0.60
2015,12,15,06,38,-0.60
2015,12,15,06,39,-0.60
2015,12,15,06,40,-0.60
2015,12,15,06,41,-0.60
2015,12,15,06,42,-0.60
2015,12,15,06,43,-0.60
2015,12,15,06,44,-0.60
2015,12,15,06,45,-0.60
2015,12,15,06,46,-0.60
2015,12,15,06,47,-0.70
2015,12,15,06,48,-0.70
2015,12,15,06,49,-0.70
2015,12,15,06,50,-0.70
2015,12,15,06,51,-0.70
2015,12,15,06,52,-0.70
2015,12,15,06,53,-0.70
2015,12,15,06,54,-0.70
2015,12,15,06,55,-0.70
2015,12,15,06,56,-0.70
2015,12,15,06,57,-0.70
2015,12,15,06,58,-0.70
2015,12,15,06,59,-0.70
2015,12,15,07,00,-0.70
2015,12,15,07,01,-0.70
2015,12,15,07,02,-0.70
2015,12,15,07,03,-0.70
2015,12,15,07,04,-0.70
2015,12,15,07,05,-0.70
2015,12,15,07,06,-0.70
2015,12,15,07,07,-0.70
2015,12,15,07,08,-0.70
2015,12,15,07,09,-0.70
2015,12,15,07,10,-0.70
2015,12,15,07,11,-0.70
2015,12,15,07,12,-0.70
2015,12,15,07,13,-0.70
2015,12,15,07,14,-0.80
2015,12,15,07,15,-0.80
2015,12,15,07,16,-0.80
2015,12,15,07,17,-0.80
2015,12,15,07,18,-0.80
2015,12,15,07,19,-0.80
2015,12,15,07,20,-0.80
2015,12,15,07,21,-0.80
2015,12,15,07,22,-0.80
2015,12,15,07,23,-0.80
2015,12,15,07,24,-0.80
2015,12,15,07,25,-0.80
2015,12,15,07,26,-0.80
2015,12,15,07,27,-0.80
2015,12,15,07,28,-0.80
2015,12,15,07,29,-0.80
2015,12,15,07,30,-0.80
2015,12,15,07,31,-0.70
2015,12,15,07,32,-0.70
2015,12,15,07,33,-0.70
2015,12,15,07,34,-0.70
2015,12,15,07,35,-0.70
2015,12,15,07,36,-0.60
2015,12,15,07,37,-0.60
2015,12,15,07,38,-0.60
2015,12,15,07,39,-0.60
2015,12,15,07,40,-0.60
2015,12,15,07,41,-0.60
2015,12,15,07,42,-0.60
2015,12,15,07,43,-0.50
2015,12,15,07,44,-0.50
2015,12,15,07,45,-0.50
2015,12,15,07,46,-0.50
2015,12,15,07,47,-0.60
2015,12,15,07,48,-0.60
2015,12,15,07,49,-0.50
2015,12,15,07,50,-0.50
2015,12,15,07,51,-0.50
2015,12,15,07,52,-0.50
2015,12,15,07,53,-0.50
2015,12,15,07,54,-0.50
2015,12,15,07,55,-0.50
2015,12,15,07,56,-0.50
2015,12,15,07,57,-0.50
2015,12,15,07,58,-0.50
2015,12,15,07,59,-0.50
2015,12,15,08,00,-0.50
2015,12,15,08,01,-0.50
2015,12,15,08,02,-0.50
2015,12,15,08,03,-0.50
2015,12,15,08,04,-0.50
2015,12,15,08,05,-0.50
2015,12,15,08,06,-0.50
2015,12,15,08,07,-0.50
2015,12,15,08,08,-0.50
2015,12,15,08,09,-0.50
2015,12,15,08,10,-0.50
2015,12,15,08,11,-0.60
2015,12,15,08,12,-0.60
2015,12,15,08,13,-0.60
2015,12,15,08,14,-0.50
2015,12,15,08,15,-0.50
2015,12,15,08,16,-0.50
2015,12,15,08,17,-0.50
2015,12,15,08,18,-0.40
2015,12,15,08,19,-0.40
2015,12,15,08,20,-0.30
2015,12,15,08,21,-0.30
2015,12,15,08,22,-0.30
2015,12,15,08,23,-0.20
2015,12,15,08,24,-0.20
2015,12,15,08,25,-0.10
2015,12,15,08,26,-0.10
2015,12,15,08,27,0.00
2015,12,15,08,28,0.00
2015,12,15,08,29,0.10
2015,12,15,08,30,0.10
2015,12,15,08,31,0.10
2015,12,15,08,32,0.00
2015,12,15,08,33,0.10
2015,12,15,08,34,0.00
2015,12,15,08,35,0.00
2015,12,15,08,36,0.00
2015,12,15,08,37,0.10
2015,12,15,08,38,0.10
2015,12,15,08,39,0.10
2015,12,15,08,40,0.00
2015,12,15,08,41,-0.10
2015,12,15,08,42,-0.10
2015,12,15,08,43,-0.20
2015,12,15,08,44,-0.30
2015,12,15,08,45,-0.30
2015,12,15,08,46,-0.30
2015,12,15,08,47,-0.30
2015,12,15,08,48,-0.30
2015,12,15,08,49,-0.30
2015,12,15,08,50,-0.30
2015,12,15,08,51,-0.30
2015,12,15,08,52,-0.30
2015,12,15,08,53,-0.30
2015,12,15,08,54,-0.20
2015,12,15,08,55,-0.20
2015,12,15,08,56,-0.20
2015,12,15,08,57,-0.10
2015,12,15,08,58,-0.10
2015,12,15,08,59,-0.10
2015,12,15,09,00,0.00
2015,12,15,09,01,0.00
2015,12,15,09,02,0.00
2015,12,15,09,03,0.00
2015,12,15,09,04,0.00
2015,12,15,09,05,0.10
2015,12,15,09,06,0.10
2015,12,15,09,07,0.10
2015,12,15,09,08,0.10
2015,12,15,09,09,0.20
2015,12,15,09,10,0.30
2015,12,15,09,11,0.40
2015,12,15,09,12,0.40
2015,12,15,09,13,0.50
2015,12,15,09,14,0.50
2015,12,15,09,15,0.50
2015,12,15,09,16,0.50
2015,12,15,09,17,0.50
2015,12,15,09,18,0.60
2015,12,15,09,19,0.70
2015,12,15,09,20,0.70
2015,12,15,09,21,0.70
2015,12,15,09,22,0.70
2015,12,15,09,23,0.60
2015,12,15,09,24,0.50
2015,12,15,09,25,0.50
2015,12,15,09,26,0.40
2015,12,15,09,27,0.40
2015,12,15,09,28,0.30
2015,12,15,09,29,0.30
2015,12,15,09,30,0.30
2015,12,15,09,31,0.30
2015,12,15,09,32,0.20
2015,12,15,09,33,0.20
2015,12,15,09,34,0.20
2015,12,15,09,35,0.20
2015,12,15,09,36,0.20
2015,12,15,09,37,0.20
2015,12,15,09,38,0.30
2015,12,15,09,39,0.30
2015,12,15,09,40,0.30
2015,12,15,09,41,0.30
2015,12,15,09,42,0.30
2015,12,15,09,43,0.40
2015,12,15,09,44,0.40
2015,12,15,09,45,0.50
2015,12,15,09,46,0.60
2015,12,15,09,47,0.60
2015,12,15,09,48,0.70
2015,12,15,09,49,0.70
2015,12,15,09,50,0.80
2015,12,15,09,51,0.80
2015,12,15,09,52,0.80
2015,12,15,09,53,0.90
2015,12,15,09,54,1.00
2015,12,15,09,55,1.10
2015,12,15,09,56,1.20
2015,12,15,09,57,1.20
2015,12,15,09,58,1.30
2015,12,15,09,59,1.40
2015,12,15,10,00,1.40
2015,12,15,10,01,1.40
2015,12,15,10,02,1.40
2015,12,15,10,03,1.40
2015,12,15,10,04,1.30
2015,12,15,10,05,1.40
2015,12,15,10,06,1.40
2015,12,15,10,07,1.40
2015,12,15,10,08,1.40
2015,12,15,10,09,1.40
2015,12,15,10,10,1.50
2015,12,15,10,11,1.50
2015,12,15,10,12,1.50
2015,12,15,10,13,1.60
2015,12,15,10,14,1.60
2015,12,15,10,15,1.60
2015,12,15,10,16,1.60
2015,12,15,10,17,1.50
2015,12,15,10,18,1.60
2015,12,15,10,19,1.60
2015,12,15,10,20,1.60
2015,12,15,10,21,1.60
2015,12,15,10,22,1.70
2015,12,15,10,23,1.70
2015,12,15,10,24,1.60
2015,12,15,10,25,1.60
2015,12,15,10,26,1.60
2015,12,15,10,27,1.70
2015,12,15,10,28,1.70
2015,12,15,10,29,1.70
2015,12,15,10,30,1.70
2015,12,15,10,31,1.70
2015,12,15,10,32,1.70
2015,12,15,10,33,1.70
2015,12,15,10,34,1.80
2015,12,15,10,35,1.80
2015,12,15,10,36,1.80
2015,12,15,10,37,1.80
2015,12,15,10,38,1.80
2015,12,15,10,39,1.80
2015,12,15,10,40,1.80
2015,12,15,10,41,1.80
2015,12,15,10,42,1.80
2015,12,15,10,43,1.90
2015,12,15,10,44,1.90
2015,12,15,10,45,1.90
2015,12,15,10,46,1.90
2015,12,15,10,47,1.90
2015,12,15,10,48,1.90
2015,12,15,10,49,1.90
2015,12,15,10,50,1.90
2015,12,15,10,51,1.90
2015,12,15,10,52,1.90
2015,12,15,10,53,1.90
2015,12,15,10,54,2.00
2015,12,15,10,55,2.00
2015,12,15,10,56,2.10
2015,12,15,10,57,2.10
2015,12,15,10,58,2.20
2015,12,15,10,59,2.20
2015,12,15,11,00,2.20
2015,12,15,11,01,2.20
2015,12,15,11,02,2.30
2015,12,15,11,03,2.30
2015,12,15,11,04,2.40
2015,12,15,11,05,2.40
2015,12,15,11,06,2.30
2015,12,15,11,07,2.30
2015,12,15,11,08,2.30
2015,12,15,11,09,2.30
2015,12,15,11,10,2.40
2015,12,15,11,11,2.40
2015,12,15,11,12,2.40
2015,12,15,11,13,2.40
2015,12,15,11,14,2.40
2015,12,15,11,15,2.50
2015,12,15,11,16,2.50
2015,12,15,11,17,2.50
2015,12,15,11,18,2.60
2015,12,15,11,19,2.60
2015,12,15,11,20,2.70
2015,12,15,11,21,2.70
2015,12,15,11,22,2.70
2015,12,15,11,23,2.70
2015,12,15,11,24,2.70
2015,12,15,11,25,2.70
2015,12,15,11,26,2.70
2015,12,15,11,27,2.70
2015,12,15,11,28,2.70
2015,12,15,11,29,2.70
2015,12,15,11,30,2.70
2015,12,15,11,31,2.70
2015,12,15,11,32,2.70
2015,12,15,11,33,2.70
2015,12,15,11,34,2.70
2015,12,15,11,35,2.70
2015,12,15,11,36,2.70
2015,12,15,11,37,2.70
2015,12,15,11,38,2.70
2015,12,15,11,39,2.80
2015,12,15,11,40,2.80
2015,12,15,11,41,2.90
2015,12,15,11,42,2.90
2015,12,15,11,43,2.90
2015,12,15,11,44,2.90
2015,12,15,11,45,3.00
2015,12,15,11,46,3.00
2015,12,15,11,47,3.10
2015,12,15,11,48,3.10
2015,12,15,11,49,3.10
2015,12,15,11,50,3.10
2015,12,15,11,51,3.10
2015,12,15,11,52,3.20
2015,12,15,11,53,3.20
2015,12,15,11,54,3.20
2015,12,15,11,55,3.20
2015,12,15,11,56,3.30
2015,12,15,11,57,3.20
2015,12,15,11,58,3.20
2015,12,15,11,59,3.20
2015,12,15,12,00,3.20
2015,12,15,12,01,3.30
2015,12,15,12,02,3.30
2015,12,15,12,03,3.20
2015,12,15,12,04,3.20
2015,12,15,12,05,3.20
2015,12,15,12,06,3.20
2015,12,15,12,07,3.20
2015,12,15,12,08,3.20
2015,12,15,12,09,3.20
2015,12,15,12,10,3.20
2015,12,15,12,11,3.30
2015,12,15,12,12,3.30
2015,12,15,12,13,3.30
2015,12,15,12,14,3.30
2015,12,15,12,15,3.30
2015,12,15,12,16,3.40
2015,12,15,12,17,3.40
2015,12,15,12,18,3.50
2015,12,15,12,19,3.50
2015,12,15,12,20,3.50
2015,12,15,12,21,3.50
2015,12,15,12,22,3.50
2015,12,15,12,23,3.50
2015,12,15,12,24,3.50
2015,12,15,12,25,3.50
2015,12,15,12,26,3.50
2015,12,15,12,27,3.50
2015,12,15,12,28,3.50
2015,12,15,12,29,3.50
2015,12,15,12,30,3.50
2015,12,15,12,31,3.50
2015,12,15,12,32,3.40
2015,12,15,12,33,3.40
2015,12,15,12,34,3.40
2015,12,15,12,35,3.40
2015,12,15,12,36,3.40
2015,12,15,12,37,3.40
2015,12,15,12,38,3.30
2015,12,15,12,39,3.30
2015,12,15,12,40,3.30
2015,12,15,12,41,3.20
2015,12,15,12,42,3.20
2015,12,15,12,43,3.20
2015,12,15,12,44,3.20
2015,12,15,12,45,3.10
2015,12,15,12,46,3.10
2015,12,15,12,47,3.10
2015,12,15,12,48,3.10
2015,12,15,12,49,3.10
2015,12,15,12,50,3.10
2015,12,15,12,51,3.10
2015,12,15,12,52,3.10
2015,12,15,12,53,3.10
2015,12,15,12,54,3.10
2015,12,15,12,55,3.10
2015,12,15,12,56,3.10
2015,12,15,12,57,3.10
2015,12,15,12,58,3.10
2015,12,15,12,59,3.10
2015,12,15,13,00,3.10
2015,12,15,13,01,3.10
2015,12,15,13,02,3.10
2015,12,15,13,03,3.10
2015,12,15,13,04,3.10
2015,12,15,13,05,3.10
2015,12,15,13,06,3.10
2015,12,15,13,07,3.10
2015,12,15,13,08,3.10
2015,12,15,13,09,3.10
2015,12,15,13,10,3.10
2015,12,15,13,11,3.10
2015,12,15,13,12,3.10
2015,12,15,13,13,3.10
2015,12,15,13,14,3.10
2015,12,15,13,15,3.10
2015,12,15,13,16,3.10
2015,12,15,13,17,3.10
2015,12,15,13,18,3.10
2015,12,15,13,19,3.20
2015,12,15,13,20,3.20
2015,12,15,13,21,3.20
2015,12,15,13,22,3.20
2015,12,15,13,23,3.20
2015,12,15,13,24,3.20
2015,12,15,13,25,3.20
2015,12,15,13,26,3.20
2015,12,15,13,27,3.20
2015,12,15,13,28,3.30
2015,12,15,13,29,3.30
2015,12,15,13,30,3.30
2015,12,15,13,31,3.30
2015,12,15,13,32,3.30
2015,12,15,13,33,3.30
2015,12,15,13,34,3.30
2015,12,15,13,35,3.30
2015,12,15,13,36,3.30
2015,12,15,13,37,3.30
2015,12,15,13,38,3.30
2015,12,15,13,39,3.30
2015,12,15,13,40,3.30
2015,12,15,13,41,3.30
2015,12,15,13,42,3.30
2015,12,15,13,43,3.30
2015,12,15,13,44,3.30
2015,12,15,13,45,3.30
2015,12,15,13,46,3.30
2015,12,15,13,47,3.30
2015,12,15,13,48,3.30
2015,12,15,13,49,3.30
2015,12,15,13,50,3.30
2015,12,15,13,51,3.30
2015,12,15,13,52,3.30
2015,12,15,13,53,3.30
2015,12,15,13,54,3.30
2015,12,15,13,55,3.30
2015,12,15,13,56,3.30
2015,12,15,13,57,3.30
2015,12,15,13,58,3.30
2015,12,15,13,59,3.30
2015,12,15,14,00,3.30
2015,12,15,14,01,3.30
2015,12,15,14,02,3.30
2015,12,15,14,03,3.30
2015,12,15,14,04,3.30
2015,12,15,14,05,3.30
2015,12,15,14,06,3.30
2015,12,15,14,07,3.30
2015,12,15,14,08,3.30
2015,12,15,14,09,3.30
2015,12,15,14,10,3.30
2015,12,15,14,11,3.30
2015,12,15,14,12,3.30
2015,12,15,14,13,3.30
2015,12,15,14,14,3.30
2015,12,15,14,15,3.30
2015,12,15,14,16,3.30
2015,12,15,14,17,3.30
2015,12,15,14,18,3.30
2015,12,15,14,19,3.30
2015,12,15,14,20,3.30
2015,12,15,14,21,3.30
2015,12,15,14,22,3.30
2015,12,15,14,23,3.30
2015,12,15,14,24,3.30
2015,12,15,14,25,3.30
2015,12,15,14,26,3.30
2015,12,15,14,27,3.30
2015,12,15,14,28,3.30
2015,12,15,14,29,3.30
2015,12,15,14,30,3.30
2015,12,15,14,31,3.20
2015,12,15,14,32,3.20
2015,12,15,14,33,3.20
2015,12,15,14,34,3.20
2015,12,15,14,35,3.20
2015,12,15,14,36,3.20
2015,12,15,14,37,3.20
2015,12,15,14,38,3.20
2015,12,15,14,39,3.20
2015,12,15,14,40,3.20
2015,12,15,14,41,3.20
2015,12,15,14,42,3.20
2015,12,15,14,43,3.20
2015,12,15,14,44,3.20
2015,12,15,14,45,3.20
2015,12,15,14,46,3.20
2015,12,15,14,47,3.20
2015,12,15,14,48,3.20
2015,12,15,14,49,3.20
2015,12,15,14,50,3.20
2015,12,15,14,51,3.20
2015,12,15,14,52,3.20
2015,12,15,14,53,3.20
2015,12,15,14,54,3.20
2015,12,15,14,55,3.20
2015,12,15,14,56,3.20
2015,12,15,14,57,3.20
2015,12,15,14,58,3.20
2015,12,15,14,59,3.20
2015,12,15,15,00,3.20
2015,12,15,15,01,3.20
2015,12,15,15,02,3.20
2015,12,15,15,03,3.20
2015,12,15,15,04,3.20
2015,12,15,15,05,3.20
2015,12,15,15,06,3.20
2015,12,15,15,07,3.20
2015,12,15,15,08,3.20
2015,12,15,15,09,3.20
2015,12,15,15,10,3.20
2015,12,15,15,11,3.20
2015,12,15,15,12,3.20
2015,12,15,15,13,3.20
2015,12,15,15,14,3.20
2015,12,15,15,15,3.20
2015,12,15,15,16,3.20
2015,12,15,15,17,3.20
2015,12,15,15,18,3.20
2015,12,15,15,19,3.20
2015,12,15,15,20,3.20
2015,12,15,15,21,3.20
2015,12,15,15,22,3.20
2015,12,15,15,23,3.20
2015,12,15,15,24,3.20
2015,12,15,15,25,3.20
2015,12,15,15,26,3.20
2015,12,15,15,27,3.20
2015,12,15,15,28,3.20
2015,12,15,15,29,3.20
2015,12,15,15,30,3.20
2015,12,15,15,31,3.10
2015,12,15,15,32,3.10
2015,12,15,15,33,3.10
2015,12,15,15,34,3.10
2015,12,15,15,35,3.10
2015,12,15,15,36,3.10
2015,12,15,15,37,3.10
2015,12,15,15,38,3.00
2015,12,15,15,39,3.00
2015,12,15,15,40,3.00
2015,12,15,15,41,3.00
2015,12,15,15,42,3.00
2015,12,15,15,43,3.00
2015,12,15,15,44,3.00
2015,12,15,15,45,3.00
2015,12,15,15,46,3.00
2015,12,15,15,47,3.00
2015,12,15,15,48,3.10
2015,12,15,15,49,3.10
2015,12,15,15,50,3.10
2015,12,15,15,51,3.10
2015,12,15,15,52,3.10
2015,12,15,15,53,3.00
2015,12,15,15,54,3.00
2015,12,15,15,55,3.00
2015,12,15,15,56,3.00
2015,12,15,15,57,3.00
2015,12,15,15,58,3.10
2015,12,15,15,59,3.10
2015,12,15,16,00,3.00
2015,12,15,16,01,3.00
2015,12,15,16,02,3.00
2015,12,15,16,03,2.90
2015,12,15,16,04,2.90
2015,12,15,16,05,2.90
2015,12,15,16,06,2.90
2015,12,15,16,07,2.90
2015,12,15,16,08,2.90
2015,12,15,16,09,2.90
2015,12,15,16,10,2.90
2015,12,15,16,11,2.90
2015,12,15,16,12,2.90
2015,12,15,16,13,2.90
2015,12,15,16,14,2.80
2015,12,15,16,15,2.80
2015,12,15,16,16,2.80
2015,12,15,16,17,2.80
2015,12,15,16,18,2.80
2015,12,15,16,19,2.80
2015,12,15,16,20,2.80
2015,12,15,16,21,2.80
2015,12,15,16,22,2.80
2015,12,15,16,23,2.80
2015,12,15,16,24,2.80
2015,12,15,16,25,2.70
2015,12,15,16,26,2.70
2015,12,15,16,27,2.70
2015,12,15,16,28,2.70
2015,12,15,16,29,2.70
2015,12,15,16,30,2.70
2015,12,15,16,31,2.70
2015,12,15,16,32,2.70
2015,12,15,16,33,2.60
2015,12,15,16,34,2.60
2015,12,15,16,35,2.60
2015,12,15,16,36,2.60
2015,12,15,16,37,2.60
2015,12,15,16,38,2.60
2015,12,15,16,39,2.60
2015,12,15,16,40,2.50
2015,12,15,16,41,2.50
2015,12,15,16,42,2.50
2015,12,15,16,43,2.50
2015,12,15,16,44,2.50
2015,12,15,16,45,2.50
2015,12,15,16,46,2.50
2015,12,15,16,47,2.50
2015,12,15,16,48,2.50
2015,12,15,16,49,2.50
2015,12,15,16,50,2.50
2015,12,15,16,51,2.50
2015,12,15,16,52,2.50
2015,12,15,16,53,2.50
2015,12,15,16,54,2.50
2015,12,15,16,55,2.50
2015,12,15,16,56,2.50
2015,12,15,16,57,2.50
2015,12,15,16,58,2.50
2015,12,15,16,59,2.50
2015,12,15,17,00,2.50
2015,12,15,17,01,2.40
2015,12,15,17,02,2.40
2015,12,15,17,03,2.40
2015,12,15,17,04,2.40
2015,12,15,17,05,2.40
2015,12,15,17,06,2.40
2015,12,15,17,07,2.40
2015,12,15,17,08,2.40
2015,12,15,17,09,2.40
2015,12,15,17,10,2.40
2015,12,15,17,11,2.40
2015,12,15,17,12,2.40
2015,12,15,17,13,2.40
2015,12,15,17,14,2.40
2015,12,15,17,15,2.40
2015,12,15,17,16,2.40
2015,12,15,17,17,2.40
2015,12,15,17,18,2.30
2015,12,15,17,19,2.30
2015,12,15,17,20,2.30
2015,12,15,17,21,2.30
2015,12,15,17,22,2.30
2015,12,15,17,23,2.30
2015,12,15,17,24,2.30
2015,12,15,17,25,2.20
2015,12,15,17,26,2.20
2015,12,15,17,27,2.20
2015,12,15,17,28,2.20
2015,12,15,17,29,2.20
2015,12,15,17,30,2.20
2015,12,15,17,31,2.20
2015,12,15,17,32,2.20
2015,12,15,17,33,2.10
2015,12,15,17,34,2.10
2015,12,15,17,35,2.10
2015,12,15,17,36,2.10
2015,12,15,17,37,2.10
2015,12,15,17,38,2.00
2015,12,15,17,39,2.00
2015,12,15,17,40,1.90
2015,12,15,17,41,1.90
2015,12,15,17,42,1.90